User: anonymous   Login
Location: Stoke Bliss
(52.2667°N, 2.5167°W)
Time: 11:07:08
(UTC+00:00)
Language:

Cosmos 1703 Rocket - Orbit

View from above orbital plane
View from above orbital plane
View from above satellite
View from above satellite

Ground track
Ground track

The orbit data is extracted from the following two-line orbital elements,

1 16263U 85108B   21137.86436854  .00000071  00000-0  57719-5 0  9990
2 16263  82.5060 212.0332 0018995 319.2364 102.3998 14.83140373895350
Epoch (UTC): 17 May 2021 20:44:41
Eccentricity: 0.0018995
inclination: 82.5060°
perigee height: 606 km
apogee height: 633 km
right ascension of ascending node: 212.0332°
argument of perigee: 319.2364°
revolutions per day: 14.83140373
mean anomaly at epoch: 102.3998°
orbit number at epoch: 89535

The dashed part of the orbit path shows where the satellite is in the earth's shadow,  

DLR